Regional Weather Roundup
Issued by NWS

Home | Current Version | Previous Version | Graphics & Text | Print | Product List | Glossary On
Versions: 1 2 3 4 5 6 7 8 9 10 11 12 13 14 15 16 17 18 19 20 21 22 23 24 25 26 27 28 29 30 31 32 33 34 35 36 37 38 39 40 41 42 43 44 45 46 47 48 49 50
000
ASUS43 KLSX 240359
RWRMO

WEATHER SUMMARY FOR MISSOURI
NATIONAL WEATHER SERVICE SPRINGFIELD MO
1100 PM CDT TUE SEP 23 2014

NOTE: "FAIR" INDICATES FEW OR NO CLOUDS BELOW 12,000 FEET WITH NO
       SIGNIFICANT WEATHER AND/OR OBSTRUCTIONS TO VISIBILITY.
       CURRENT SKY AND/OR WEATHER CONDITIONS ARE NOT AVAILABLE FOR
       CHILLICOTHE AND FARMINGTON.

MOZ001>031-035>038-043-044-053-054-240500-
...NORTHERN AND WESTERN MISSOURI...

CITY           SKY/WX    TMP DP  RH WIND       PRES   REMARKS
KANSAS CTY INT LGT RAIN  65  52  62 SE10      30.17F
KANSAS C DTWN  CLOUDY    68  50  52 SE9       30.17F
LEE`S SUMMIT   CLOUDY    65  50  58 SE5       30.21R
ST JOSEPH      LGT RAIN  64  54  69 S9        30.16R
KIRKSVILLE     CLOUDY    61  52  72 SE9       30.22S

$$
MOZ066>068-077>081-088>096-101>105-240500-
...SOUTHWEST MISSOURI...

CITY           SKY/WX    TMP DP  RH WIND       PRES   REMARKS
SPRINGFIELD    CLEAR     60  49  66 SE8       30.20R
JOPLIN         PTCLDY    61  48  62 SE8       30.20R

$$
MOZ032>034-039>042-045>050-055>058-069>072-240500-
...CENTRAL MISSOURI...

CITY           SKY/WX    TMP DP  RH WIND       PRES   REMARKS
COLUMBIA       CLOUDY    62  51  67 SE8       30.23R
JEFFERSON CITY CLOUDY    62  51  67 SE6       30.22R
ROLLA          MOCLDY    60  48  64 SE8       30.23S
SEDALIA        MOCLDY    63  50  62 SE7       30.21R
OSAGE BEACH    MOCLDY    59  46  63 E3        30.22R

$$
MOZ051-052-059>065-240500-
...EAST CENTRAL MISSOURI...

CITY           SKY/WX    TMP DP  RH WIND       PRES   REMARKS
ST LOUIS INTL  MOCLDY    61  50  67 E5        30.26R
SPIRIT OF STL  CLEAR     54  51  90 CALM      30.24R
ST CHARLES     PTCLDY    55  52  89 E7        30.25R

$$
MOZ072>076-082>087-097>100-106>115-240500-
...SOUTH CENTRAL AND SOUTHEAST MISSOURI...

CITY           SKY/WX    TMP DP  RH WIND       PRES   REMARKS
CAPE GIRARDEAU CLEAR     54  51  90 E5        30.23S
FARMINGTON     MOCLDY    54  52  94 CALM      30.27S
POPLAR BLUFF   CLEAR     52  48  86 CALM      30.22R
WEST PLAINS    PTCLDY    53  48  83 CALM      30.25R

$$


USA.gov is the U.S. government's official web portal to all federal, state and local government web resources and services.